logo Eve Who10,838,022 Characters
753,442 Corporations
7,910 Alliances

Home Pilots Corporations Alliances Factions Comments FAQ 

corp logo
alli logo
character image
Character:Adolin
Corporation:Contra Ratio
Alliance:DARKNESS.
Sec. Status:2.1
Links:zKillboard
EveBoard
Eve-Search
Last Updated: 2017-12-15 04:13:45 | 825312248
comments powered by Disqus
Corp. History
 NameJoinedLeft
corp logoContra Ratio2017/08/07 08:40
corp logoBrutor Tribe2017/08/07 08:402017/08/07 08:39
corp logoLoad Up Blast Everything2016/06/05 06:522017/08/07 08:39
corp logoBrutor Tribe2016/06/05 06:512016/06/05 06:51
corp logoContra Ratio2016/04/05 07:402016/06/05 06:50
corp logoBrutor Tribe2016/04/05 07:392016/04/05 07:39
corp logoBlood Oath Foundation2015/09/11 03:072016/04/05 07:38
corp logoBrutor Tribe2015/07/16 06:362015/09/11 03:06
corp logoFun Inc2012/09/25 09:232015/07/16 06:35
corp logoBrutor Tribe2012/08/28 07:112012/09/25 09:22
corp logoFun Inc2012/08/09 09:042012/08/28 07:10
corp logoBrutor Tribe2012/06/10 12:362012/08/09 09:03
corp logoVirtual Warriors2011/05/12 19:262012/06/10 12:35
corp logoEternal Guardians2011/04/29 07:442011/05/12 19:25
corp logoFun Inc2011/04/08 05:232011/04/29 07:43
corp logoBrutor Tribe2011/04/08 02:402011/04/08 05:22
corp logoKinetic Cartel2011/03/05 23:282011/04/08 02:39
corp logoFun Inc2010/11/26 05:442011/03/05 23:27
corp logoBrutor Tribe2010/11/19 19:542010/11/26 05:43
corp logoFun Inc2010/10/15 07:442010/11/19 19:53
corp logoBrutor Tribe2010/10/15 07:432010/10/15 07:43
corp logoSTK Scientific2010/07/15 08:432010/10/15 07:42
corp logoFun Inc2008/11/13 20:182010/07/15 08:42
corp logoBrutor Tribe2008/08/23 09:272008/11/13 20:17
corp logoLone Star Joint Venture2008/08/15 18:062008/08/23 09:26
corp logoBrutor Tribe2008/07/30 08:502008/08/15 18:05
corp logoTri-Nova Tokamak Security and Investments2008/06/25 10:562008/07/30 08:49
corp logoBrutor Tribe2008/06/25 09:062008/06/25 10:55
corp logoLuminaire Atrocity2008/06/15 09:122008/06/25 09:05
corp logoBrutor Tribe2008/06/15 09:092008/06/15 09:11
corp logoTri-Nova Tokamak Security and Investments2008/05/16 10:302008/06/15 09:08
corp logoBrutor Tribe2008/05/16 03:582008/05/16 10:29
corp logoNo Quarter.2007/09/27 03:462008/05/16 03:57
corp logoBrutor Tribe2007/09/26 13:012007/09/27 03:45
corp logoMartial.2007/09/24 12:412007/09/26 13:00
corp logoTri-Nova Tokamak Security and Investments2007/03/27 12:472007/09/24 12:40
corp logoRepublic Military School2007/03/16 09:402007/03/27 12:46


Any pilots, corporations, or alliances that relate to actual people or entities are purely coincidental.
8q/5ms Disclaimer A / C Brought to you by: Squizz Caphinator Forum Thread
EVE Online and the EVE logo are the registered trademarks of CCP hf. All rights are reserved worldwide. All other trademarks are the property of their respective owners. EVE Online, the EVE logo, EVE and all associated logos and designs are the intellectual property of CCP hf. All artwork, screenshots, characters, vehicles, storylines, world facts or other recognizable features of the intellectual property relating to these trademarks are likewise the intellectual property of CCP hf. CCP hf. has granted permission to evewho.com to use EVE Online and all associated logos and designs for promotional and information purposes on its website but does not endorse, and is not in any way affiliated with, evewho.com. CCP is in no way responsible for the content on or functioning of this website, nor can it be liable for any damage arising from the use of this website.